Nairobi / Wilson, Kenya

11:17 AM EAT on January 17, 2017 (GMT +0300)
Wilson

Weather History for HKNW - November, 2012

Change the Weather History Date:

Tuesday, November 27, 2012

  Actual Average Record
Temperature  
Mean Temperature 70 °F -  
Max Temperature 78 °F 70 °F 78 °F (2012)
Min Temperature 62 °F 60 °F 59 °F (2011)
Cooling Degree Days 5    
Growing Degree Days 20 (Base 50)    
Moisture  
Dew Point 60 °F    
Average Humidity 73    
Maximum Humidity 94    
Minimum Humidity 47    
Precipitation  
Precipitation 0.00 in - - ()
Sea Level Pressure  
Sea Level Pressure 30.12 in    
Wind  
Wind Speed 6 mph ()    
Max Wind Speed 20 mph    
Max Gust Speed -    
Visibility 6.2 miles    
Events      
Averages and records for this station are not official NWS values.
T = Trace of Precipitation, MM = Missing Value Source: Averaged Metar Reports

Daily Weather History Graph

Daily Weather History Graph

Search for Another Location

Airport or City:

Trip Planner

Search our weather history database for the weather conditions in past years. The results will help you decide how hot, cold, wet, or windy it might be!

Date:

Astronomy

Nov. 27, 2012 Rise Set
Actual Time 6:14 AM EAT 6:26 PM EAT
Civil Twilight 5:52 AM EAT 6:48 PM EAT
Nautical Twilight 5:26 AM EAT 7:14 PM EAT
Astronomical Twilight 5:00 AM EAT 7:40 PM EAT
Moon 5:37 PM EAT (11/27) 5:09 AM EAT (11/27)
Length of Visible Light 12h 55m
Length of Day
12h 11m
Waxing Gibbous, 99% of the Moon is Illuminated
Nov 27
Waxing Gibbous
Nov 28
Full
Dec 6
Last Quarter
Dec 13
New
Dec 20
First Quarter

Hourly Weather History & Observations

Time (EAT) Temp. Dew Point Humidity Pressure Visibility Wind Dir Wind Speed Gust Speed Precip Events Conditions
12:00 AM 66.2 °F 60.8 °F 83% 30.12 in 6.2 mi NNE 6.9 mph - N/A   Scattered Clouds
1:00 AM 66.2 °F 60.8 °F 83% 30.12 in 6.2 mi ENE 11.5 mph - N/A   Scattered Clouds
3:00 AM 64.4 °F 60.8 °F 88% 30.12 in 6.2 mi Calm Calm - N/A   Scattered Clouds
4:00 AM 64.4 °F 60.8 °F 88% 30.09 in 6.2 mi Calm Calm - N/A   Scattered Clouds
6:00 AM 62.6 °F 59.0 °F 88% 30.12 in 6.2 mi Calm Calm - N/A   Mostly Cloudy
7:00 AM 62.6 °F 60.8 °F 94% 30.09 in 6.2 mi Calm Calm - N/A   Mostly Cloudy
8:00 AM 64.4 °F 60.8 °F 88% 30.15 in 6.2 mi East 5.8 mph - N/A   Mostly Cloudy
9:00 AM 66.2 °F 60.8 °F 83% 30.15 in 6.2 mi NE 11.5 mph - N/A   Mostly Cloudy
10:00 AM 68.0 °F 60.8 °F 78% 30.18 in 6.2 mi NE 8.1 mph - N/A   Mostly Cloudy
11:00 AM 69.8 °F 59.0 °F 68% 30.18 in 6.2 mi ENE 5.8 mph - N/A   Mostly Cloudy
12:00 PM 73.4 °F 59.0 °F 61% 30.15 in 6.2 mi NNE 8.1 mph - N/A   Scattered Clouds
1:00 PM 77.0 °F 59.0 °F 54% 30.12 in 6.2 mi ENE 5.8 mph - N/A   Mostly Cloudy
2:00 PM 78.8 °F 57.2 °F 47% 30.09 in 6.2 mi East 11.5 mph - N/A   Mostly Cloudy
5:00 PM 77.0 °F 57.2 °F 50% 30.06 in 6.2 mi East 19.6 mph - N/A   Mostly Cloudy
6:00 PM 75.2 °F 55.4 °F 50% 30.06 in 6.2 mi ENE 9.2 mph - N/A   Mostly Cloudy
7:00 PM 71.6 °F 59.0 °F 64% 30.06 in 6.2 mi ENE 10.4 mph - N/A   Partly Cloudy
8:00 PM 69.8 °F 60.8 °F 73% 30.12 in 6.2 mi NE 8.1 mph - N/A   Partly Cloudy
9:00 PM 69.8 °F 60.8 °F 73% 30.12 in 6.2 mi ENE 9.2 mph - N/A   Mostly Cloudy
10:00 PM 68.0 °F 60.8 °F 78% 30.15 in 6.2 mi East 5.8 mph - N/A   Mostly Cloudy
11:00 PM 68.0 °F 60.8 °F 78% 30.15 in 6.2 mi ENE 9.2 mph - N/A   Mostly Cloudy